{"data":{"norad_id":59700,"epoch":"2026-05-24T22:44:57.359904Z","epoch_age_seconds":86378,"freshness":"FRESH","line1":"1 59700U 24086U   26144.94788611 -.00002469  00000+0 -80181-4 0  9996","line2":"2 59700  43.0034 349.3326 0000785 269.9855  90.0907 15.27594340115777","mean_motion":15.2759434,"eccentricity":7.85e-5,"inclination_deg":43.0034,"raan_deg":349.3326,"arg_perigee_deg":269.9855,"mean_anomaly_deg":90.0907,"bstar":-8.0181e-5,"rev_number":11577,"period_min":94.265863802559,"perigee_km":482.46755751892,"apogee_km":483.54475699461,"semimajor_km":6861.1431572568,"source":"CELESTRAK","updated_at":"2026-05-25T13:38:19.043868Z"}}